Weather History for Land O' Lakes, WI

Change the Weather History Date:

Saturday, April 26, 2014

  Actual Average (KEGV) Record (KEGV)
Temperature  
Mean Temperature 38 °F -  
Max Temperature 45 °F 56 °F 73 °F (2001)
Min Temperature 30 °F 30 °F 21 °F (1993)
Degree Days  
Heating Degree Days 27    
Moisture  
Dew Point 27 °F    
Average Humidity 73    
Maximum Humidity 100    
Minimum Humidity 39    
Precipitation  
Precipitation 0.00 in - - ()
Sea Level Pressure  
Sea Level Pressure 30.03 in    
Wind  
Wind Speed 8 mph (NNE)    
Max Wind Speed 14 mph    
Max Gust Speed 21 mph    
Visibility 8 miles    
Events Snow    
Averages and records for this station are not official NWS values.
T = Trace of Precipitation, MM = Missing Value Source: NWS Daily Summary

Daily Weather History Graph

Daily Weather History Graph

Search for Another Location

Airport:

Trip Planner

Search our weather history database for the weather conditions in past years. The results will help you decide how hot, cold, wet, or windy it might be!

Date:

Astronomy

Apr. 26, 2014 Rise Set
Actual Time 5:51 AM CDT 7:58 PM CDT
Civil Twilight 5:18 AM CDT 8:31 PM CDT
Nautical Twilight 4:38 AM CDT 9:11 PM CDT
Astronomical Twilight 3:53 AM CDT 9:56 PM CDT
Moon 4:25 AM CDT (4/26) 5:18 PM CDT (4/26)
Length of Visible Light 15h 12m
Length of Day
14h 07m
Waning Crescent, 8% of the Moon is Illuminated
Apr 26
Waning Crescent
Apr 29
New
May 6
First Quarter
May 14
Full
May 21
Last Quarter

Hourly Weather History & Observations

Time (CDT) Temp. Windchill Dew Point Humidity Pressure Visibility Wind Dir Wind Speed Gust Speed Precip Events Conditions
12:15 AM 32.0 °F 23.6 °F 30.4 °F 94% 29.89 in 10.0 mi NNW 10.4 mph - N/A   Overcast
12:35 AM 32.2 °F 23.2 °F 30.7 °F 94% 29.89 in 10.0 mi NNW 11.5 mph - N/A   Overcast
12:55 AM 32.2 °F 23.8 °F 30.6 °F 94% 29.89 in 10.0 mi NNW 10.4 mph 16.1 mph N/A   Overcast
1:15 AM 32.0 °F 24.8 °F 30.7 °F 95% 29.90 in 10.0 mi NNW 8.1 mph 20.7 mph N/A   Overcast
1:35 AM 32.2 °F 25.0 °F 30.7 °F 94% 29.90 in 10.0 mi NNW 8.1 mph - N/A   Overcast
1:55 AM 32.0 °F 24.8 °F 31.1 °F 96% 29.90 in 5.0 mi NNW 8.1 mph 16.1 mph N/A   Overcast
2:15 AM 32.0 °F 23.6 °F 31.1 °F 96% 29.90 in 3.0 mi North 10.4 mph - N/A   Overcast
2:35 AM 32.0 °F 23.6 °F 30.9 °F 96% 29.91 in 7.0 mi North 10.4 mph - N/A   Overcast
2:55 AM 32.0 °F 23.0 °F 31.1 °F 96% 29.91 in 5.0 mi NNW 11.5 mph 18.4 mph N/A   Overcast
3:15 AM 32.0 °F 23.6 °F 31.1 °F 96% 29.91 in 10.0 mi North 10.4 mph 18.4 mph N/A   Overcast
3:35 AM 32.0 °F 24.2 °F 31.1 °F 96% 29.92 in 4.0 mi North 9.2 mph - N/A Snow Light Snow
3:55 AM 32.0 °F 24.2 °F 30.9 °F 96% 29.92 in 3.0 mi North 9.2 mph - N/A Snow Light Snow
4:15 AM 32.0 °F 23.0 °F 30.7 °F 95% 29.93 in 10.0 mi North 11.5 mph - N/A   Overcast
4:35 AM 32.0 °F 23.0 °F 30.4 °F 94% 29.94 in 7.0 mi North 11.5 mph - N/A   Overcast
4:55 AM 31.8 °F 23.3 °F 30.6 °F 95% 29.94 in 3.0 mi North 10.4 mph - N/A Snow Light Snow
5:15 AM 31.6 °F 26.0 °F 30.6 °F 96% 29.95 in 7.0 mi North 5.8 mph - N/A   Overcast
5:35 AM 31.6 °F 24.4 °F 30.7 °F 96% 29.95 in 10.0 mi NNE 8.1 mph - N/A   Overcast
5:55 AM 31.5 °F 25.8 °F 30.9 °F 98% 29.96 in 10.0 mi North 5.8 mph - N/A   Overcast
6:15 AM 31.5 °F 23.5 °F 31.1 °F 99% 29.97 in 4.0 mi North 9.2 mph - N/A   Overcast
6:35 AM 31.1 °F 23.7 °F 31.1 °F 100% 29.99 in 1.2 mi North 8.1 mph - N/A   Overcast
6:55 AM 31.6 °F 25.1 °F 31.5 °F 99% 29.99 in 1.8 mi North 6.9 mph - N/A Snow Light Snow
7:15 AM 31.8 °F 26.2 °F 31.6 °F 99% 30.01 in 3.0 mi NNW 5.8 mph - N/A   Overcast
7:35 AM 31.6 °F 25.1 °F 31.5 °F 99% 30.02 in 2.5 mi North 6.9 mph - N/A   Overcast
7:55 AM 31.8 °F 23.9 °F 31.6 °F 99% 30.02 in 1.8 mi North 9.2 mph - N/A   Overcast
8:15 AM 32.0 °F 24.2 °F 31.8 °F 99% 30.02 in 4.0 mi North 9.2 mph - N/A   Overcast
8:35 AM 32.0 °F 25.6 °F 32.0 °F 100% 30.04 in 4.0 mi North 6.9 mph - N/A   Overcast
8:55 AM 32.7 °F 27.3 °F 32.0 °F 97% 30.04 in 2.5 mi North 5.8 mph - N/A   Overcast
9:15 AM 33.4 °F 27.3 °F 31.8 °F 94% 30.04 in 2.5 mi North 6.9 mph - N/A   Overcast
9:35 AM 33.4 °F 28.1 °F 31.8 °F 94% 30.05 in 5.0 mi North 5.8 mph - N/A   Overcast
9:55 AM 34.0 °F 28.0 °F 31.8 °F 92% 30.05 in 5.0 mi NNE 6.9 mph - N/A   Overcast
10:15 AM 34.7 °F 28.1 °F 31.5 °F 88% 30.05 in 10.0 mi North 8.1 mph - N/A   Overcast
10:55 AM 36.5 °F 32.7 °F 31.3 °F 81% 30.06 in 7.0 mi NNE 4.6 mph - N/A   Overcast
11:15 AM 37.0 °F 31.6 °F 29.7 °F 75% 30.07 in 10.0 mi ENE 6.9 mph - N/A   Overcast
11:35 AM 37.6 °F 31.0 °F 29.5 °F 73% 30.09 in 10.0 mi ENE 9.2 mph - N/A   Overcast
11:55 AM 37.6 °F 33.1 °F 28.9 °F 71% 30.07 in 10.0 mi East 5.8 mph - N/A   Overcast
12:15 PM 39.4 °F 33.8 °F 28.2 °F 64% 30.08 in 10.0 mi NE 8.1 mph - N/A   Overcast
12:35 PM 40.3 °F - 29.1 °F 64% 30.09 in 10.0 mi Calm Calm - N/A   Overcast
12:55 PM 39.9 °F 35.1 °F 28.4 °F 63% 30.09 in 10.0 mi North 6.9 mph - N/A   Overcast
1:15 PM 40.8 °F 35.0 °F 27.3 °F 59% 30.08 in 10.0 mi NE 9.2 mph - N/A   Overcast
1:35 PM 41.5 °F 35.9 °F 27.0 °F 56% 30.09 in 10.0 mi NNE 9.2 mph 17.3 mph N/A   Overcast
1:55 PM 43.2 °F 39.7 °F 26.4 °F 52% 30.09 in 10.0 mi NNE 5.8 mph - N/A   Overcast
2:15 PM 41.9 °F 39.0 °F 26.1 °F 53% 30.09 in 10.0 mi NNE 4.6 mph - N/A   Overcast
2:35 PM 42.4 °F 37.5 °F 26.4 °F 53% 30.08 in 10.0 mi ENE 8.1 mph - N/A   Overcast
2:55 PM 43.0 °F 38.8 °F 25.7 °F 51% 30.08 in 10.0 mi ENE 6.9 mph - N/A   Overcast
3:15 PM 43.7 °F 41.1 °F 25.5 °F 49% 30.07 in 10.0 mi ENE 4.6 mph 19.6 mph N/A   Mostly Cloudy
3:35 PM 44.6 °F 39.2 °F 25.3 °F 47% 30.07 in 10.0 mi NNE 10.4 mph - N/A   Scattered Clouds
3:55 PM 44.8 °F 41.0 °F 24.6 °F 45% 30.07 in 10.0 mi ENE 6.9 mph - N/A   Scattered Clouds
4:15 PM 45.0 °F 40.1 °F 23.7 °F 43% 30.07 in 10.0 mi NE 9.2 mph - N/A   Scattered Clouds
4:35 PM 45.9 °F 39.7 °F 23.9 °F 42% 30.07 in 10.0 mi NNE 13.8 mph - N/A   Clear
4:55 PM 44.8 °F 41.0 °F 21.9 °F 40% 30.08 in 10.0 mi East 6.9 mph - N/A   Clear
5:15 PM 44.8 °F 39.9 °F 22.5 °F 41% 30.09 in 10.0 mi ENE 9.2 mph - N/A   Clear
5:35 PM 45.1 °F 39.9 °F 22.1 °F 40% 30.08 in 10.0 mi ENE 10.4 mph - N/A   Clear
5:55 PM 44.6 °F 41.4 °F 20.7 °F 39% 30.08 in 10.0 mi East 5.8 mph - N/A   Clear
6:15 PM 43.9 °F 41.3 °F 21.2 °F 41% 30.08 in 10.0 mi ENE 4.6 mph - N/A   Clear
6:35 PM 43.5 °F 39.4 °F 21.7 °F 42% 30.08 in 10.0 mi ENE 6.9 mph - N/A   Clear
6:55 PM 42.3 °F 37.9 °F 21.7 °F 44% 30.08 in 10.0 mi East 6.9 mph - N/A   Clear
7:15 PM 41.0 °F 35.8 °F 21.7 °F 46% 30.07 in 10.0 mi ENE 8.1 mph - N/A   Clear
7:35 PM 40.1 °F 36.9 °F 21.9 °F 48% 30.08 in 10.0 mi ENE 4.6 mph - N/A   Clear
7:55 PM 38.7 °F 33.6 °F 21.0 °F 49% 30.09 in 10.0 mi ENE 6.9 mph - N/A   Clear
8:15 PM 37.4 °F 32.1 °F 22.1 °F 54% 30.09 in 10.0 mi NE 6.9 mph - N/A   Clear
8:35 PM 36.1 °F 30.6 °F 21.9 °F 56% 30.09 in 10.0 mi ENE 6.9 mph - N/A   Clear
9:15 PM 34.2 °F 30.0 °F 19.2 °F 54% 30.10 in 10.0 mi NE 4.6 mph - N/A   Clear
9:35 PM 33.3 °F 27.9 °F 18.3 °F 54% 30.10 in 10.0 mi NE 5.8 mph - N/A   Clear
9:55 PM 32.9 °F 29.8 °F 17.8 °F 54% 30.12 in 10.0 mi ENE 3.5 mph - N/A   Clear
10:15 PM 32.4 °F 27.9 °F 18.0 °F 55% 30.13 in 10.0 mi ENE 4.6 mph - N/A   Clear
10:35 PM 32.0 °F 27.5 °F 19.2 °F 59% 30.13 in 10.0 mi East 4.6 mph - N/A   Clear
10:55 PM 32.0 °F 27.5 °F 19.2 °F 59% 30.13 in 10.0 mi East 4.6 mph - N/A   Clear
11:15 PM 32.0 °F 26.4 °F 19.0 °F 59% 30.13 in 10.0 mi East 5.8 mph - N/A   Clear
11:35 PM 31.3 °F 27.9 °F 19.4 °F 61% 30.14 in 10.0 mi ESE 3.5 mph - N/A   Clear
11:55 PM 30.7 °F 27.3 °F 19.8 °F 64% 30.15 in 10.0 mi ESE 3.5 mph - N/A   Clear